#timestamp,LO_Frequency,Hit,StdDev 
1544306415.5,286046994.7,P
1544306435.3,286046993.3,P
1544306455.2,286046996.0,N
1544306475.0,286046993.8,Y
1544306475.9,286046993.8,P
1544306495.8,286046999.1,N
1544306515.6,286047000.6,N
1544306535.4,286046998.1,N
1544306555.3,286046998.3,N
1544306575.1,286046998.3,N
1544306595.8,286047001.1,N
1544306615.7,286046998.2,N
1544306635.5,286047000.6,N
1544306655.4,286046999.5,N
1544306675.2,286046997.9,N
1544306695.0,286046995.2,N
1544306695.9,286046995.2,N
1544306715.8,286046994.9,N
1544306735.6,286046997.8,N
1544306755.4,286046995.3,N
1544306775.3,286046995.5,N
1544306795.1,286046996.4,N
1544306815.9,286046995.8,N
1544306835.7,286046995.6,N
1544306855.5,286046995.1,N
1544306875.4,286046996.0,N
1544306895.2,286046993.8,Y
1544306915.1,286046997.3,P
1544306916.0,286046997.3,P
1544306935.8,286046998.0,P
1544306955.6,286046999.3,N
1544306975.5,286046998.8,N
1544306995.3,286046999.6,N
1544307015.1,286046998.7,N
1544307035.9,286046998.6,N
1544307055.7,286046998.8,N
1544307075.6,286046997.2,Y
1544307095.4,286046999.2,P
1544307115.2,286046998.1,P
1544307135.1,286047000.7,N
1544307136.0,286047000.7,N
1544307155.8,286047001.4,N
1544307175.7,286047000.5,N
1544307195.5,286047002.4,N
1544307215.3,286047002.6,N
1544307235.2,286047001.4,N
1544307255.0,286047005.6,Y
1544307255.9,286047005.6,P
1544307275.8,286047001.3,N
1544307295.6,286047004.4,N
1544307315.4,286047004.1,N
1544307335.3,286047005.9,Y
1544307355.1,286047000.3,P
1544307375.9,286047000.1,N
1544307395.7,286047002.4,N
1544307415.5,286047002.4,N
1544307435.4,286047001.5,N
1544307455.2,286047003.0,N
1544307475.0,286047003.0,N
1544307475.9,286047003.0,N
1544307495.8,286047003.4,N
1544307515.6,286047003.7,Y
1544307535.5,286047000.0,P
1544307555.3,286047001.5,N
1544307575.1,286047002.0,N
1544307595.9,286047001.8,N
1544307615.7,286047002.4,N
1544307635.6,286047003.9,Y
1544307655.4,286047001.4,P
1544307675.2,286047005.4,P
1544307695.1,286047005.7,P
1544307696.0,286047005.7,N
1544307715.8,286047001.5,N
1544307735.6,286047001.7,N
1544307755.5,286047001.6,N
1544307775.3,286047004.2,N
1544307795.2,286047005.6,N
1544307815.9,286047003.3,N
1544307835.7,286047004.1,N
1544307855.6,286047004.0,N
1544307875.4,286047003.2,N
1544307895.2,286047001.9,N
1544307915.1,286047004.1,N
1544307916.0,286047004.1,N
1544307935.8,286047004.1,N
1544307955.7,286047004.3,N
1544307975.5,286047003.2,N
1544307995.3,286047007.0,Y
1544308015.2,286047003.3,P
1544308035.0,286047003.5,P
1544308035.9,286047003.5,P
1544308055.8,286047005.5,Y
1544308075.6,286046999.8,P
1544308095.4,286046998.5,N
1544308115.3,286047001.1,N
1544308135.1,286046998.6,N
1544308155.8,286046998.2,N
1544308175.7,286046998.8,N
1544308195.5,286046998.6,N
1544308215.4,286047001.0,N
1544308235.2,286046998.1,N
1544308255.0,286046998.8,N
1544308255.9,286046998.8,N
1544308275.8,286047001.0,N
1544308295.6,286047000.8,N
1544308315.5,286047000.4,N
1544308335.3,286047000.0,N
1544308355.1,286046998.2,N
1544308375.9,286046998.4,N
1544308395.7,286046996.6,N
1544308415.5,286046999.5,N
1544308435.4,286046999.0,N
1544308455.2,286046998.6,N
1544308475.1,286046999.7,N
1544308476.0,286046999.7,N
1544308495.8,286047001.2,N
1544308515.6,286046999.9,N
1544308535.5,286047000.8,N
1544308555.3,286047002.4,N
1544308575.1,286047002.4,N
1544308595.9,286047000.6,N
1544308615.7,286047000.3,N
1544308635.6,286047000.6,N
1544308655.4,286047002.4,N
1544308675.2,286047000.4,N
1544308695.1,286047000.6,N
1544308696.0,286047000.6,N
1544308715.8,286047000.2,N
1544308735.7,286047000.0,N
1544308755.5,286047002.2,N
1544308775.3,286047001.9,N
1544308795.2,286047001.9,N
1544308815.0,286047002.6,N
1544308815.9,286047002.6,N
1544308835.7,286046999.8,N
1544308855.6,286047002.6,N
1544308875.4,286047002.2,N
1544308895.3,286046999.7,N
1544308915.1,286047002.1,N
1544308935.8,286047003.1,N
1544308955.7,286047004.7,Y
1544308975.5,286047004.1,P
1544308995.4,286047001.6,N
1544309015.2,286047005.6,P
1544309035.0,286047003.4,N
1544309035.9,286047003.4,N
1544309055.8,286047001.4,N
1544309075.6,286047001.9,N
1544309095.4,286047003.9,N
1544309115.3,286047006.0,Y
1544309135.1,286047000.6,P
1544309155.9,286047002.7,N
1544309175.7,286046998.8,N
1544309195.5,286046999.6,N
1544309215.4,286046999.5,N
1544309235.2,286046998.7,N
1544309255.1,286047000.3,N
1544309256.0,286047000.3,N
1544309275.8,286046999.8,N
1544309295.6,286047000.3,N
1544309315.5,286047002.1,N
1544309335.3,286047002.6,N
1544309355.1,286047002.5,N
1544309375.9,286047002.7,N
1544309395.7,286047000.5,N
1544309415.6,286047001.6,N
1544309435.4,286047002.0,N
1544309455.2,286046999.7,N
1544309475.1,286047000.9,N
1544309476.0,286047000.9,N
1544309495.8,286046998.8,N
1544309515.6,286047000.9,N
1544309535.5,286047004.3,Y
1544309555.3,286047000.3,P
1544309575.2,286046998.1,P
1544309595.0,286046998.6,N
1544309595.9,286046998.6,N
1544309615.7,286047000.1,N
1544309635.6,286047000.0,N
1544309655.4,286047002.8,N
1544309675.3,286046998.6,N
1544309695.1,286046997.0,N
1544309696.0,286046997.0,N
1544309715.8,286046996.9,N
1544309735.7,286046999.6,N
1544309755.5,286046999.2,N
1544309775.4,286046999.5,N
1544309795.2,286046996.5,N
1544309815.0,286046996.8,N
1544309815.9,286046996.8,N
1544309835.8,286046996.7,N
1544309855.6,286046997.7,N
1544309875.4,286046997.2,N
1544309895.3,286046997.0,N
1544309915.1,286046997.1,N
1544309935.9,286046997.5,N
1544309955.7,286046997.0,N
1544309975.5,286046997.5,N
1544309995.4,286046995.4,N
